Orbital Elements at Epoch 2459000.5 (2020-May-31.0) TDB
Reference: JPL 22 (heliocentric ecliptic J2000)
Element | Value | Uncertainty (1-sigma) | Units |
e | .1010865762401793 | 2.8083e-08 | |
a | 2.468126702795614 | 1.1287e-08 | au |
q | 2.218632224683043 | 6.8046e-08 | au |
i | 6.018882957384012 | 5.5592e-06 | deg |
node | 303.9617894819815 | 4.1273e-05 | deg |
peri | 131.4098565580019 | 6.0238e-05 | deg |
M | 97.05423341276315 | 4.2174e-05 | deg |
tp | 2458618.677439394647 (2019-May-15.17743939) | 0.00016537 | TDB |
period | 1416.281567372112 3.88 | 9.7148e-06 2.66e-08 | d yr |
n | .2541867438605264 | 1.7436e-09 | deg/d |
Q | 2.717621180908186 | 1.2427e-08 | au |
|
| | Orbit Determination Parameters
Additional Information
|